When you browse on this site, cookies collect data to enhance your experience and personalize the content and advertising you see.
Visit our Privacy Policy to learn more. By continuing to use the site, you agree to this use of cookies and data.
  • In Czech Republic
  • List of Countries
  • For 7 days
  • Water Temperature
  • Satellite Maps
  • Weather Map
  • Weather Widgets
  • user-avatar
    Login

    Hourly Weather Midwest City

    Today, 20 July, Saturday

    Time Temperature Precipitation Wind Pressure Humidity
    00:00 +29°C° 0 mm 8 mps 726 mmHg 62%
    01:00 +29°C° 0 mm 8 mps 725 mmHg 65%
    02:00 +28°C° 0 mm 8 mps 725 mmHg 68%
    03:00 +28°C° 0 mm 8 mps 725 mmHg 70%
    04:00 +28°C° 0 mm 7 mps 725 mmHg 73%
    05:00 +28°C° 0 mm 7 mps 725 mmHg 75%
    06:00 +27°C° 0 mm 7 mps 725 mmHg 77%
    07:00 +29°C° 0 mm 7 mps 726 mmHg 73%
    08:00 +31°C° 0 mm 8 mps 726 mmHg 69%
    09:00 +32°C° 0 mm 8 mps 726 mmHg 65%
    10:00 +34°C° 0 mm 8 mps 726 mmHg 61%
    11:00 +35°C° 0 mm 8 mps 727 mmHg 56%
    12:00 +38°C° 0 mm 7 mps 727 mmHg 51%
    13:00 +38°C° 0 mm 8 mps 726 mmHg 47%
    14:00 +39°C° 0 mm 8 mps 726 mmHg 43%
    15:00 +40°C° 0 mm 8 mps 725 mmHg 40%
    16:00 +39°C° 0 mm 7 mps 725 mmHg 42%
    17:00 +36°C° 0 mm 7 mps 725 mmHg 44%
    18:00 +35°C° 0 mm 6 mps 725 mmHg 46%
    19:00 +34°C° 0 mm 6 mps 725 mmHg 49%
    20:00 +32°C° 0 mm 6 mps 725 mmHg 52%
    21:00 +30°C° 0 mm 6 mps 725 mmHg 55%
    22:00 +29°C° 0 mm 6 mps 725 mmHg 56%
    23:00 +28°C° 0 mm 5 mps 725 mmHg 58%

    Tomorrow, 21 July, Sunday

    Time Temperature Precipitation Wind Pressure Humidity
    00:00 +28°C° 0 mm 5 mps 725 mmHg 60%
    01:00 +28°C° 0 mm 6 mps 726 mmHg 60%
    02:00 +27°C° 0 mm 6 mps 726 mmHg 60%
    03:00 +27°C° 0 mm 6 mps 726 mmHg 60%
    04:00 +27°C° 0 mm 6 mps 726 mmHg 63%
    05:00 +26°C° 0 mm 6 mps 726 mmHg 66%
    06:00 +26°C° 0 mm 5 mps 726 mmHg 70%
    07:00 +28°C° 0 mm 6 mps 726 mmHg 66%
    08:00 +29°C° 0 mm 7 mps 727 mmHg 62%
    09:00 +32°C° 0 mm 7 mps 727 mmHg 58%
    10:00 +34°C° 0 mm 7 mps 727 mmHg 54%
    11:00 +35°C° 0 mm 7 mps 727 mmHg 49%
    12:00 +38°C° 0 mm 7 mps 727 mmHg 44%
    13:00 +39°C° 0 mm 6 mps 727 mmHg 41%
    14:00 +40°C° 0 mm 5 mps 727 mmHg 37%
    15:00 +41°C° 0 mm 5 mps 727 mmHg 33%
    16:00 +40°C° 0 mm 5 mps 726 mmHg 36%
    17:00 +39°C° 0 mm 6 mps 726 mmHg 40%
    18:00 +38°C° 0 mm 6 mps 726 mmHg 44%
    19:00 +35°C° 0 mm 6 mps 726 mmHg 46%
    20:00 +33°C° 0 mm 6 mps 726 mmHg 49%
    21:00 +32°C° 0 mm 6 mps 726 mmHg 52%
    22:00 +30°C° 0.1 mm 6 mps 726 mmHg 53%
    23:00 +29°C° 0.1 mm 6 mps 726 mmHg 54%

    Day after tomorrow, 22 July, Monday

    Time Temperature Precipitation Wind Pressure Humidity
    00:00 +28°C° 0.1 mm 6 mps 727 mmHg 54%
    01:00 +27°C° 0.2 mm 5 mps 727 mmHg 61%
    02:00 +26°C° 0.2 mm 4 mps 727 mmHg 67%
    03:00 +25°C° 0.2 mm 3 mps 727 mmHg 73%
    04:00 +25°C° 0 mm 3 mps 727 mmHg 79%
    05:00 +25°C° 0 mm 3 mps 728 mmHg 85%
    06:00 +23°C° 0 mm 4 mps 728 mmHg 92%
    07:00 +25°C° 0 mm 5 mps 728 mmHg 87%
    08:00 +26°C° 0 mm 5 mps 729 mmHg 82%
    09:00 +26°C° 0 mm 6 mps 729 mmHg 77%
    10:00 +26°C° 0 mm 6 mps 730 mmHg 77%
    11:00 +26°C° 0 mm 7 mps 730 mmHg 78%
    12:00 +26°C° 0 mm 7 mps 730 mmHg 78%
    13:00 +27°C° 0 mm 7 mps 730 mmHg 73%
    14:00 +28°C° 0 mm 8 mps 730 mmHg 68%
    15:00 +29°C° 0 mm 8 mps 730 mmHg 63%
    16:00 +29°C° 0 mm 8 mps 730 mmHg 63%
    17:00 +28°C° 0 mm 8 mps 730 mmHg 63%
    18:00 +28°C° 0 mm 8 mps 730 mmHg 63%
    19:00 +27°C° 0 mm 7 mps 731 mmHg 66%
    20:00 +24°C° 0 mm 6 mps 731 mmHg 69%
    21:00 +23°C° 0 mm 5 mps 731 mmHg 72%
    22:00 +22°C° 0 mm 5 mps 731 mmHg 74%
    23:00 +22°C° 0 mm 5 mps 732 mmHg 77%

    23 July, Tuesday

    Time Temperature Precipitation Wind Pressure Humidity
    00:00 +21°C° 0 mm 5 mps 732 mmHg 79%
    01:00 +20°C° 0 mm 5 mps 732 mmHg 82%
    02:00 +20°C° 0 mm 5 mps 732 mmHg 84%
    03:00 +19°C° 0 mm 5 mps 732 mmHg 87%
    04:00 +19°C° 0 mm 4 mps 732 mmHg 89%
    05:00 +18°C° 0 mm 4 mps 732 mmHg 91%
    06:00 +18°C° 0 mm 4 mps 732 mmHg 93%
    07:00 +20°C° 0 mm 4 mps 733 mmHg 85%
    08:00 +22°C° 0 mm 5 mps 733 mmHg 77%
    09:00 +25°C° 0 mm 5 mps 734 mmHg 68%
    10:00 +26°C° 0 mm 5 mps 734 mmHg 61%
    11:00 +28°C° 0 mm 5 mps 734 mmHg 54%
    12:00 +29°C° 0 mm 5 mps 733 mmHg 47%
    13:00 +30°C° 0 mm 6 mps 733 mmHg 46%
    14:00 +30°C° 0 mm 6 mps 732 mmHg 44%
    15:00 +30°C° 0 mm 6 mps 732 mmHg 42%
    16:00 +30°C° 0 mm 6 mps 732 mmHg 45%
    17:00 +29°C° 0 mm 5 mps 731 mmHg 48%
    18:00 +28°C° 0 mm 5 mps 731 mmHg 51%
    19:00 +26°C° 0 mm 5 mps 731 mmHg 58%
    20:00 +23°C° 0 mm 4 mps 732 mmHg 65%
    21:00 +22°C° 0 mm 4 mps 732 mmHg 72%
    22:00 +21°C° 0 mm 3 mps 732 mmHg 75%
    23:00 +20°C° 0 mm 3 mps 732 mmHg 78%

    24 July, Wednesday

    Time Temperature Precipitation Wind Pressure Humidity
    00:00 +19°C° 0 mm 3 mps 732 mmHg 81%
    01:00 +19°C° 0 mm 2 mps 732 mmHg 82%
    02:00 +18°C° 0 mm 2 mps 732 mmHg 82%
    03:00 +18°C° 0 mm 2 mps 731 mmHg 83%
    04:00 +17°C° 0 mm 2 mps 732 mmHg 84%
    05:00 +17°C° 0 mm 2 mps 732 mmHg 85%
    06:00 +17°C° 0 mm 2 mps 732 mmHg 86%
    07:00 +19°C° 0 mm 2 mps 732 mmHg 78%
    08:00 +23°C° 0 mm 2 mps 733 mmHg 70%
    09:00 +25°C° 0 mm 2 mps 733 mmHg 62%
    10:00 +26°C° 0 mm 2 mps 733 mmHg 55%
    11:00 +28°C° 0 mm 2 mps 733 mmHg 49%
    12:00 +29°C° 0 mm 1 mps 732 mmHg 42%
    13:00 +30°C° 0 mm 2 mps 732 mmHg 39%
    14:00 +31°C° 0 mm 2 mps 731 mmHg 36%
    15:00 +31°C° 0 mm 2 mps 731 mmHg 33%
    16:00 +31°C° 0 mm 2 mps 730 mmHg 35%
    17:00 +31°C° 0 mm 2 mps 730 mmHg 37%
    18:00 +30°C° 0 mm 3 mps 730 mmHg 39%
    19:00 +28°C° 0 mm 3 mps 730 mmHg 46%
    20:00 +26°C° 0 mm 3 mps 730 mmHg 53%
    21:00 +24°C° 0 mm 3 mps 730 mmHg 60%
    22:00 +22°C° 0 mm 3 mps 730 mmHg 65%
    23:00 +22°C° 0 mm 3 mps 730 mmHg 71%

    25 July, Thursday

    Time Temperature Precipitation Wind Pressure Humidity
    00:00 +21°C° 0 mm 3 mps 730 mmHg 77%
    01:00 +21°C° 0 mm 3 mps 730 mmHg 77%
    02:00 +20°C° 0 mm 2 mps 730 mmHg 77%
    03:00 +20°C° 0 mm 2 mps 730 mmHg 77%
    04:00 +20°C° 0 mm 2 mps 730 mmHg 79%
    05:00 +19°C° 0 mm 3 mps 730 mmHg 80%
    06:00 +19°C° 0 mm 3 mps 730 mmHg 81%
    07:00 +21°C° 0 mm 3 mps 731 mmHg 72%
    08:00 +25°C° 0 mm 4 mps 731 mmHg 63%
    09:00 +27°C° 0 mm 5 mps 732 mmHg 54%
    10:00 +28°C° 0 mm 5 mps 731 mmHg 49%
    11:00 +30°C° 0 mm 5 mps 731 mmHg 44%
    12:00 +32°C° 0 mm 5 mps 731 mmHg 39%
    13:00 +32°C° 0 mm 5 mps 731 mmHg 37%
    14:00 +33°C° 0 mm 5 mps 730 mmHg 36%
    15:00 +33°C° 0 mm 5 mps 730 mmHg 34%
    16:00 +33°C° 0 mm 5 mps 730 mmHg 36%
    17:00 +32°C° 0 mm 5 mps 729 mmHg 39%
    18:00 +30°C° 0 mm 4 mps 729 mmHg 42%
    19:00 +28°C° 0 mm 5 mps 729 mmHg 47%
    20:00 +26°C° 0 mm 5 mps 729 mmHg 53%
    21:00 +23°C° 0 mm 5 mps 729 mmHg 59%
    22:00 +23°C° 0 mm 5 mps 730 mmHg 59%
    23:00 +22°C° 0 mm 4 mps 730 mmHg 60%
    Show more